This demonstration page uses our WeatherBlox Daily Observations layout. Learn more.

Left ArrowRight Arrow

39.08367, -84.50855

Hourly Observations for March 28, 2016

Temp ( °F °C ) Dew Point ( °F °C ) Humidity (%) Winds ( mph kmh ) Pressure ( in mb ) Visibility ( mi km ) Precip ( " mm )
12:04 am 00:04 Cloudy with Rain 55 13 N/A N/A W 25 41 29.8 1009 4 6.43736 N/A
12:14 am 00:14 Cloudy with Light Rain 54 12 N/A N/A NW 15 24 29.8 1009 7 11.26538 N/A
12:53 am 00:53 Cloudy 54 12 N/A N/A N N/A 29.8 1009 10 16.0934 0.07 1.778
1:53 am 01:53 Cloudy 52 11 N/A N/A WSW 8 13 29.82 1010 10 16.0934 0.02 0.508
2:53 am 02:53 Cloudy with Light Rain 48 9 N/A N/A W 20 31 29.85 1011 10 16.0934 N/A
3:53 am 03:53 Cloudy 46 8 N/A N/A W 18 30 29.88 1012 10 16.0934 N/A
4:53 am 04:53 Cloudy 46 7.8 42 5.6 86 86 W 17 28 29.91 1013 10 16.0934 N/A
5:53 am 05:53 Cloudy 45 7.2 38 3.3 77 77 W 15 24 29.94 1014 10 16.0934 N/A
6:32 am 06:32 Cloudy 46 8 37 3 71 71 W 12 19 29.97 1015 10 16.0934 N/A
6:53 am 06:53 Cloudy 46 7.8 38 3.3 73 73 W 14 22 29.96 1015 10 16.0934 N/A
7:53 am 07:53 Cloudy 46 7.8 39 3.9 77 77 W 13 20 29.99 1016 10 16.0934 N/A
8:53 am 08:53 Cloudy 47 8.3 38 3.3 71 71 W 13 20 30.02 1017 10 16.0934 N/A
9:53 am 09:53 Cloudy 47 8.3 39 3.9 74 74 WSW 14 22 30.03 1017 10 16.0934 N/A
10:53 am 10:53 Cloudy 48 8.9 37 2.8 66 66 W 12 19 30.05 1018 10 16.0934 N/A
11:53 am 11:53 Cloudy 49 9.4 38 3.3 66 66 W 12 19 30.07 1018 10 16.0934 N/A
12:53 pm 12:53 Cloudy 50 10 38 3.3 63 63 W 14 22 30.09 1019 10 16.0934 N/A
1:53 pm 13:53 Cloudy 51 10.6 39 3.9 64 64 W 15 24 30.1 1019 10 16.0934 N/A
2:53 pm 14:53 Cloudy 51 10.6 39 3.9 64 64 WNW 12 19 30.1 1019 10 16.0934 N/A
3:53 pm 15:53 Mostly Cloudy 51 10.6 38 3.3 61 61 W 14 22 30.11 1020 10 16.0934 N/A
4:53 pm 16:53 Cloudy 50 10 38 3.3 63 63 WNW 10 17 30.12 1020 10 16.0934 N/A
5:53 pm 17:53 Cloudy 50 10 37 2.8 61 61 NW 8 13 30.13 1020 10 16.0934 N/A
6:53 pm 18:53 Cloudy 50 10 37 2.8 61 61 NW 10 17 30.14 1021 10 16.0934 N/A
7:53 pm 19:53 Cloudy 49 9.4 37 2.8 64 64 NNW 7 11 30.15 1021 10 16.0934 N/A
8:53 pm 20:53 Cloudy 49 9.4 38 3.3 66 66 WNW 6 9 30.16 1022 10 16.0934 N/A
9:53 pm 21:53 Cloudy 49 9.4 38 3.3 66 66 VRB 5 7 30.18 1022 10 16.0934 N/A
10:53 pm 22:53 Cloudy 49 9.4 39 3.9 69 69 NNW 8 13 30.19 1022 10 16.0934 N/A
11:53 pm 23:53 Cloudy 48 8.9 39 3.9 71 71 N 9 15 30.19 1022 10 16.0934 N/A

Powered by AerisWeather